Δευτέρα, 19 Οκτωβρίου 2015

HABE

Την Παρασκευή 16 Οκτωβρίου 2015 έγινε η πτήση του ΗΑΒΕ και ΗΑΒΕ-2 από ομάδα Βρετανών. Τα 2 ΗΑΒ απογειώθηκαν από το Λέχαιο Κορίνθου και προσεδαφίστηκαν στην Τανάγρα. Το μέγιστο ύψος στην Στρατόσφαιρα ήταν 27χλμ χωρίς ωστόσο να λείψουν τα απρόοπτα: Τα δυο μπαλόνια μπλέχτηκαν κατά την άνοδο και ταξίδεψαν μαζί, ενώ υπήρξε και λάθος στο σετάρισμα της εκπομπής τους με αποτέλεσμα να περάσουν πολύ λίγα πακέτα δεδομένων.
Μέλη του Αίολος team βοήθησαν τους Βρετανούς βάση συνεργασίας που είχε επιμεληθεί ο Χρήστος SV1NJX, ενώ επι τόπου στο Λέχαιο βρέθηκε ο Μάνος SV1DAY. Την επικοινωνία μεταξύ Λέχαιο-Αθήνα έκανε ο SV1BJY.
To συγκεκριμένο εγχείρημα των Βρετανών άφησε αρκετό υλικό προς μελέτη από την ομάδα μας, ώστε να γίνουμε αποτελεσματικότεροι σε μελλοντικές δραστηριότητες.

Περιγραφή και αρκετές φωτογραφίες υπάρχουν και εδώ.

Κυριακή, 11 Οκτωβρίου 2015

Βρετανικό ΗΑΒ στην Αττική

Την Παρασκευή 16 Οκτωβρίου θα πραγματοποιηθεί πτήση  ΗΑΒ στα πλαίσια ερευνητικού προγράμματος, από ομάδα Βρετανών. Το σημείο απογείωσης του ΗΑΒ θα είναι στην ευρύτερη περιοχή της Αττικής-Βοιωτίας, αλλά θα αποφασιστεί την τελευταία μέρα λόγω του ευμετάβλητου καιρού που επικρατεί.

Το Αίολος-team θα συνδράμει την προσπάθεια των Βρετανών σε όλα τα στάδια, όπως του ζητήθηκε.

Όσοι συνάδελφοι επιθυμούν να συμβάλλουν, μπορούν να εγκαταστήσουν το δωρεάν πρόγραμμα DL-FLdigi που χρησιμοποιεί την μπάντα των 434MHz για tracking του μπαλονιού.

Οδηγίες και κατέβασμα της εφαρμογής (εκδοση 3.1)εδώ:

  https://ukhas.org.uk/projects:dl-fldigi


Περισσότερες πληροφορίες θα δοθούν τις επόμενες μέρες, μπορείτε ακόμα να ζητάτε διευκρινήσεις στο mail της ομάδας Αίολος,  j43vhf@gmail.com

Τρίτη, 26 Μαΐου 2015

Στατιστικά πτήσης AEOLUS-2way

-Απογείωση στις 11:09 τοπική
-Προσεδάφιση στις 13:28 τοπική
-Διάρκεια πτήσης 2 ώρες και 19 λεπτά
- 365 πακέτα τηλεμετρίας aprs κατά τη διάρκεια της πτήσης
- 34,600m μέγιστο ύψος
-240 km/h μέγιστη ταχύτητα πτώσης (πριν ανοίξει το αλεξίπτωτο, λόγω έλλειψης ατμόσφαιρας)
- 95.5 χιλιόμετρα ταξιδιού
- 32.9 χιλιόμετρα η απόσταση σε ευθεία που ταξίδεψε (σημείο άφεσης - σημείο πτώσης)
- ελάχιστη θερμοκρασία -24 βαθμοί στα 10χιλ πάνω από τον Πάρνωνα


TIME (GMT) lat lng speed course ALTITUDE m comment T=Temp
10/5/2015 7:19 37,43367 22,10567 0 0 410,57 T=26 SATs=11 V=11333 hellashab.blogspot.gr
10/5/2015 8:03 37,43367 22,1055 0 0 411,78 T=23 SATs=9 V=11510 hellashab.blogspot.gr
10/5/2015 8:04 37,43367 22,10567 2 89 409,35 T=23 SATs=9 V=11490 hellashab.blogspot.gr
10/5/2015 8:06 37,43383 22,10567 0 0 410,87 T=24 SATs=9 V=11490 hellashab.blogspot.gr
10/5/2015 8:08 37,43383 22,10583 0 0 409,65 T=24 SATs=9 V=11490 hellashab.blogspot.gr
10/5/2015 8:09 37,43383 22,10517 4 0 428,55 T=27 SATs=10 V=11490 hellashab.blogspot.gr
10/5/2015 8:09 37,43367 22,10383 19 256 532,49 T=24 SATs=10 V=11490 hellashab.blogspot.gr
10/5/2015 8:09 37,4335 22,10233 24 270 638,25 T=23 SATs=10 V=11470 hellashab.blogspot.gr
10/5/2015 8:10 37,43317 22,10117 6 264 744,02 T=22 SATs=10 V=11490 hellashab.blogspot.gr
10/5/2015 8:10 37,433 22,10017 2 0 849,17 T=22 SATs=10 V=11470 hellashab.blogspot.gr
10/5/2015 8:10 37,43267 22,0995 28 219 960,73 T=22 SATs=10 V=11470 hellashab.blogspot.gr
10/5/2015 8:11 37,43217 22,0985 31 237 1067,41 T=21 SATs=9 V=11470 hellashab.blogspot.gr
10/5/2015 8:11 37,43183 22,09783 15 208 1185,98 T=21 SATs=10 V=11470 hellashab.blogspot.gr
10/5/2015 8:11 37,4315 22,09733 9 286 1292,05 T=20 SATs=10 V=11470 hellashab.blogspot.gr
10/5/2015 8:12 37,431 22,0965 9 288 1400,56 T=20 SATs=10 V=11470 hellashab.blogspot.gr
10/5/2015 8:12 37,43033 22,096 9 213 1492,61 T=23 SATs=10 V=11470 hellashab.blogspot.gr
10/5/2015 8:12 37,42983 22,0955 13 234 1565,76 T=19 SATs=10 V=11470 hellashab.blogspot.gr
10/5/2015 8:13 37,429 22,095 19 255 1652,02 T=18 SATs=10 V=11450 hellashab.blogspot.gr
10/5/2015 8:13 37,42833 22,09467 19 178 1743,46 T=18 SATs=9 V=11470 hellashab.blogspot.gr
10/5/2015 8:13 37,42817 22,0945 17 155 1840,99 T=17 SATs=9 V=11470 hellashab.blogspot.gr
10/5/2015 8:14 37,42783 22,09417 9 190 1948,28 T=17 SATs=10 V=11470 hellashab.blogspot.gr
10/5/2015 8:14 37,42767 22,09433 20 177 2056,79 T=20 SATs=9 V=11470 hellashab.blogspot.gr
10/5/2015 8:14 37,42717 22,09433 19 220 2176,27 T=16 SATs=10 V=11470 hellashab.blogspot.gr
10/5/2015 8:15 37,42683 22,0945 19 137 2283,56 T=15 SATs=10 V=11470 hellashab.blogspot.gr
10/5/2015 8:15 37,42633 22,0945 11 257 2394,81 T=15 SATs=10 V=11450 hellashab.blogspot.gr
10/5/2015 8:15 37,42533 22,09467 7 159 2497,53 T=15 SATs=8 V=11470 hellashab.blogspot.gr
10/5/2015 8:16 37,42433 22,09467 17 216 2610,92 T=14 SATs=9 V=11470 hellashab.blogspot.gr
10/5/2015 8:16 37,42333 22,09483 20 145 2713,63 T=14 SATs=9 V=11450 hellashab.blogspot.gr
10/5/2015 8:16 37,42217 22,0955 15 146 2812,69 T=14 SATs=9 V=11470 hellashab.blogspot.gr
10/5/2015 8:17 37,42117 22,096 19 117 2898,65 T=17 SATs=9 V=11470 hellashab.blogspot.gr
10/5/2015 8:17 37,42033 22,0965 26 133 2995,88 T=13 SATs=9 V=11450 hellashab.blogspot.gr
10/5/2015 8:17 37,4195 22,097 24 165 3087,32 T=13 SATs=9 V=11450 hellashab.blogspot.gr
10/5/2015 8:18 37,4185 22,09767 28 162 3181,81 T=13 SATs=9 V=11450 hellashab.blogspot.gr
10/5/2015 8:18 37,41767 22,0985 20 115 3277,51 T=13 SATs=8 V=11470 hellashab.blogspot.gr
10/5/2015 8:18 37,41717 22,099 19 187 3380,54 T=15 SATs=9 V=11450 hellashab.blogspot.gr
10/5/2015 8:19 37,41617 22,09983 33 139 3480,82 T=12 SATs=9 V=11450 hellashab.blogspot.gr
10/5/2015 8:19 37,41467 22,101 43 147 3569,82 T=11 SATs=7 V=11450 hellashab.blogspot.gr
10/5/2015 8:19 37,41333 22,10217 33 144 3668,88 T=11 SATs=9 V=11450 hellashab.blogspot.gr
10/5/2015 8:20 37,41183 22,10333 31 177 3771,9 T=10 SATs=9 V=11450 hellashab.blogspot.gr
10/5/2015 8:20 37,4105 22,10433 26 155 3868,52 T=9 SATs=9 V=11450 hellashab.blogspot.gr
10/5/2015 8:20 37,40933 22,1055 43 147 3973,07 T=12 SATs=9 V=11450 hellashab.blogspot.gr
10/5/2015 8:21 37,408 22,10683 28 136 4078,22 T=9 SATs=8 V=11429 hellashab.blogspot.gr
10/5/2015 8:21 37,40667 22,10833 50 146 4195,88 T=9 SATs=9 V=11450 hellashab.blogspot.gr
10/5/2015 8:21 37,40517 22,11 24 115 4307,74 T=8 SATs=9 V=11450 hellashab.blogspot.gr
10/5/2015 8:22 37,40367 22,11117 30 175 4438,19 T=12 SATs=9 V=11429 hellashab.blogspot.gr
10/5/2015 8:22 37,40333 22,11133 39 154 4458,31 T=8 SATs=9 V=11450 hellashab.blogspot.gr
10/5/2015 8:22 37,40167 22,11233 20 151 4583,28 T=8 SATs=9 V=11450 hellashab.blogspot.gr
10/5/2015 8:23 37,40017 22,1135 26 134 4708,55 T=6 SATs=9 V=11450 hellashab.blogspot.gr
10/5/2015 8:23 37,3985 22,1145 39 171 4821,63 T=5 SATs=9 V=11450 hellashab.blogspot.gr
10/5/2015 8:23 37,39683 22,1155 43 130 4951,48 T=6 SATs=9 V=11450 hellashab.blogspot.gr
10/5/2015 8:24 37,3945 22,11683 41 151 5075,83 T=6 SATs=8 V=11450 hellashab.blogspot.gr
10/5/2015 8:24 37,3925 22,11767 52 158 5201,11 T=5 SATs=9 V=11429 hellashab.blogspot.gr
10/5/2015 8:24 37,39083 22,11817 13 155 5321,2 T=5 SATs=8 V=11450 hellashab.blogspot.gr
10/5/2015 8:25 37,3895 22,11883 30 169 5435,19 T=5 SATs=9 V=11450 hellashab.blogspot.gr
10/5/2015 8:25 37,38817 22,11933 22 157 5541,57 T=4 SATs=9 V=11429 hellashab.blogspot.gr
10/5/2015 8:25 37,38783 22,1195 20 161 5570,22 T=7 SATs=9 V=11450 hellashab.blogspot.gr
10/5/2015 8:26 37,3865 22,12017 33 176 5675,99 T=3 SATs=9 V=11429 hellashab.blogspot.gr
10/5/2015 8:26 37,38517 22,12067 26 157 5795,47 T=2 SATs=9 V=11429 hellashab.blogspot.gr
10/5/2015 8:26 37,38383 22,1205 24 177 5934,46 T=1 SATs=8 V=11429 hellashab.blogspot.gr
10/5/2015 8:27 37,3825 22,12 33 181 6063,39 T=1 SATs=9 V=11429 hellashab.blogspot.gr
10/5/2015 8:27 37,382 22,11983 7 239 6170,37 T=1 SATs=9 V=11450 hellashab.blogspot.gr
10/5/2015 8:27 37,38133 22,12 4 0 6300,22 T=1 SATs=9 V=11429 hellashab.blogspot.gr
10/5/2015 8:28 37,38067 22,12017 26 191 6418,48 T=1 SATs=8 V=11429 hellashab.blogspot.gr
10/5/2015 8:28 37,37983 22,12033 26 202 6544,36 T=0 SATs=9 V=11429 hellashab.blogspot.gr
10/5/2015 8:29 37,379 22,12017 19 145 6648,6 T=-1 SATs=9 V=11413 hellashab.blogspot.gr
10/5/2015 8:29 37,37867 22,12033 26 181 6669,33 T=-1 SATs=9 V=11429 hellashab.blogspot.gr
10/5/2015 8:29 37,37767 22,12017 24 140 6775,09 T=2 SATs=9 V=11429 hellashab.blogspot.gr
10/5/2015 8:29 37,37667 22,12033 22 214 6879,64 T=-2 SATs=9 V=11413 hellashab.blogspot.gr
10/5/2015 8:29 37,37617 22,12017 31 162 6911,95 T=-2 SATs=9 V=11429 hellashab.blogspot.gr
10/5/2015 8:30 37,37533 22,12067 11 166 7027,16 T=0 SATs=9 V=11429 hellashab.blogspot.gr
10/5/2015 8:30 37,37467 22,12067 17 228 7132,02 T=-4 SATs=9 V=11429 hellashab.blogspot.gr
10/5/2015 8:30 37,37433 22,1205 24 169 7163,1 T=-3 SATs=8 V=11429 hellashab.blogspot.gr
10/5/2015 8:30 37,3735 22,12033 24 207 7275,27 T=-3 SATs=9 V=11429 hellashab.blogspot.gr
10/5/2015 8:31 37,3725 22,11967 4 275 7420,97 T=-5 SATs=9 V=11429 hellashab.blogspot.gr
10/5/2015 8:31 37,37267 22,1195 9 280 7441,08 T=-4 SATs=9 V=11429 hellashab.blogspot.gr
10/5/2015 8:31 37,372 22,11917 24 240 7548,37 T=-2 SATs=10 V=11429 hellashab.blogspot.gr
10/5/2015 8:32 37,37133 22,1185 15 186 7659,32 T=-4 SATs=9 V=11429 hellashab.blogspot.gr
10/5/2015 8:32 37,371 22,11817 7 139 7766,61 T=-5 SATs=10 V=11413 hellashab.blogspot.gr
10/5/2015 8:32 37,37067 22,1175 7 248 7880,3 T=-6 SATs=10 V=11429 hellashab.blogspot.gr
10/5/2015 8:33 37,3705 22,11717 17 85 8134,5 T=-7 SATs=10 V=11413 hellashab.blogspot.gr
10/5/2015 8:33 37,3705 22,117 22 351 8249,41 T=-7 SATs=10 V=11413 hellashab.blogspot.gr
10/5/2015 8:34 37,37117 22,116 33 346 8402,12 T=-9 SATs=10 V=11413 hellashab.blogspot.gr
10/5/2015 8:34 37,37183 22,11533 7 0 8551,77 T=-10 SATs=10 V=11393 hellashab.blogspot.gr
10/5/2015 8:35 37,37267 22,1145 26 348 8681,31 T=-10 SATs=10 V=11393 hellashab.blogspot.gr
10/5/2015 8:35 37,37267 22,11417 15 311 8802,62 T=-11 SATs=10 V=11413 hellashab.blogspot.gr
10/5/2015 8:35 37,37267 22,11333 19 245 8946,49 T=-11 SATs=10 V=11413 hellashab.blogspot.gr
10/5/2015 8:36 37,373 22,113 19 283 9072,37 T=-11 SATs=10 V=11413 hellashab.blogspot.gr
10/5/2015 8:36 37,373 22,1125 11 333 9109,56 T=-11 SATs=10 V=11413 hellashab.blogspot.gr
10/5/2015 8:37 37,37317 22,11133 11 273 9248,85 T=-12 SATs=9 V=11393 hellashab.blogspot.gr
10/5/2015 8:37 37,373 22,1105 24 281 9364,07 T=-13 SATs=10 V=11373 hellashab.blogspot.gr
10/5/2015 8:37 37,37267 22,10983 15 201 9481,11 T=-13 SATs=10 V=11393 hellashab.blogspot.gr
10/5/2015 8:38 37,372 22,10833 17 227 9612,17 T=-12 SATs=10 V=11373 hellashab.blogspot.gr
10/5/2015 8:38 37,37183 22,108 19 192 9705,44 T=-12 SATs=10 V=11393 hellashab.blogspot.gr
10/5/2015 8:38 37,37117 22,10717 22 223 9806,03 T=-15 SATs=10 V=11393 hellashab.blogspot.gr
10/5/2015 8:38 37,37117 22,10683 17 188 9844,13 T=-15 SATs=10 V=11393 hellashab.blogspot.gr
10/5/2015 8:39 37,37067 22,1065 11 245 9881,92 T=-15 SATs=9 V=11393 hellashab.blogspot.gr
10/5/2015 8:39 37,37067 22,10583 17 239 9987,99 T=-15 SATs=10 V=11393 hellashab.blogspot.gr
10/5/2015 8:39 37,3705 22,10617 7 74 10087,66 T=-15 SATs=10 V=11393 hellashab.blogspot.gr
10/5/2015 8:39 37,37033 22,10633 13 148 10122,1 T=-15 SATs=9 V=11373 hellashab.blogspot.gr
10/5/2015 8:40 37,37033 22,10667 9 97 10156,24 T=-15 SATs=9 V=11373 hellashab.blogspot.gr
10/5/2015 8:40 37,37083 22,107 9 34 10283,04 T=-17 SATs=10 V=11373 hellashab.blogspot.gr
10/5/2015 8:40 37,37117 22,10767 17 352 10401,91 T=-17 SATs=10 V=11373 hellashab.blogspot.gr
10/5/2015 8:40 37,37133 22,10783 20 94 10441,84 T=-18 SATs=10 V=11373 hellashab.blogspot.gr
10/5/2015 8:41 37,37117 22,10967 31 70 10593,93 T=-18 SATs=10 V=11373 hellashab.blogspot.gr
10/5/2015 8:41 37,3705 22,11167 39 124 10709,76 T=-19 SATs=10 V=11373 hellashab.blogspot.gr
10/5/2015 8:41 37,37017 22,11267 44 96 10741,76 T=-19 SATs=9 V=11353 hellashab.blogspot.gr
10/5/2015 8:41 37,37 22,11317 44 130 10759,74 T=-19 SATs=9 V=11373 hellashab.blogspot.gr
10/5/2015 8:42 37,36933 22,1155 35 126 10849,36 T=-18 SATs=10 V=11353 hellashab.blogspot.gr
10/5/2015 8:42 37,369 22,116 41 121 10874,96 T=-18 SATs=9 V=11373 hellashab.blogspot.gr
10/5/2015 8:42 37,36817 22,11833 28 145 11021,57 T=-19 SATs=10 V=11353 hellashab.blogspot.gr
10/5/2015 8:42 37,368 22,1185 13 123 11049,61 T=-19 SATs=9 V=11373 hellashab.blogspot.gr
10/5/2015 8:42 37,36783 22,119 28 119 11077,65 T=-19 SATs=10 V=11353 hellashab.blogspot.gr
10/5/2015 8:43 37,36667 22,1205 20 149 11177,32 T=-19 SATs=10 V=11373 hellashab.blogspot.gr
10/5/2015 8:43 37,36533 22,12233 22 105 11279,43 T=-19 SATs=10 V=11373 hellashab.blogspot.gr
10/5/2015 8:44 37,364 22,12433 50 147 11372,09 T=-19 SATs=10 V=11353 hellashab.blogspot.gr
10/5/2015 8:44 37,36217 22,1265 31 113 11471,15 T=-20 SATs=10 V=11353 hellashab.blogspot.gr
10/5/2015 8:44 37,361 22,12867 48 112 11604,65 T=-20 SATs=10 V=11353 hellashab.blogspot.gr
10/5/2015 8:45 37,3605 22,1295 52 132 11632,08 T=-19 SATs=9 V=11353 hellashab.blogspot.gr
10/5/2015 8:45 37,3595 22,13217 41 119 11714,99 T=-19 SATs=10 V=11353 hellashab.blogspot.gr
10/5/2015 8:45 37,35917 22,13317 54 93 11758,27 T=-17 SATs=10 V=11333 hellashab.blogspot.gr
10/5/2015 8:45 37,35883 22,134 54 108 11800,03 T=-19 SATs=9 V=11353 hellashab.blogspot.gr
10/5/2015 8:45 37,35883 22,13467 46 99 11820,75 T=-18 SATs=10 V=11353 hellashab.blogspot.gr
10/5/2015 8:46 37,358 22,13767 48 120 11909,15 T=-19 SATs=10 V=11353 hellashab.blogspot.gr
10/5/2015 8:46 37,35783 22,14033 35 104 11999,98 T=-19 SATs=10 V=11353 hellashab.blogspot.gr
10/5/2015 8:46 37,35767 22,1415 30 92 12047,52 T=-19 SATs=10 V=11333 hellashab.blogspot.gr
10/5/2015 8:46 37,35717 22,14417 52 85 12132,87 T=-19 SATs=10 V=11333 hellashab.blogspot.gr
10/5/2015 8:46 37,35717 22,14483 46 117 12148,72 T=-17 SATs=10 V=11353 hellashab.blogspot.gr
10/5/2015 8:47 37,357 22,146 56 109 12184,99 T=-19 SATs=8 V=11333 hellashab.blogspot.gr
10/5/2015 8:47 37,35617 22,14933 65 93 12294,11 T=-19 SATs=10 V=11333 hellashab.blogspot.gr
10/5/2015 8:47 37,35583 22,151 61 93 12341,66 T=-19 SATs=9 V=11333 hellashab.blogspot.gr
10/5/2015 8:47 37,35533 22,1545 54 124 12431,27 T=-19 SATs=10 V=11333 hellashab.blogspot.gr
10/5/2015 8:48 37,35517 22,15583 48 119 12464,19 T=-20 SATs=10 V=11333 hellashab.blogspot.gr
10/5/2015 8:48 37,35417 22,15967 48 106 12578,49 T=-19 SATs=10 V=11333 hellashab.blogspot.gr
10/5/2015 8:48 37,353 22,16317 56 121 12666,57 T=-20 SATs=10 V=11313 hellashab.blogspot.gr
10/5/2015 8:48 37,35283 22,16417 69 112 12690,04 T=-20 SATs=10 V=11333 hellashab.blogspot.gr
10/5/2015 8:49 37,3525 22,16533 61 102 12728,14 T=-20 SATs=10 V=11313 hellashab.blogspot.gr
10/5/2015 8:49 37,3515 22,16883 35 107 12815,62 T=-19 SATs=9 V=11313 hellashab.blogspot.gr
10/5/2015 8:49 37,3515 22,17283 65 101 12947,6 T=-18 SATs=10 V=11333 hellashab.blogspot.gr
10/5/2015 8:50 37,3515 22,17383 46 106 12970,15 T=-19 SATs=10 V=11313 hellashab.blogspot.gr
10/5/2015 8:50 37,35083 22,17833 46 123 13081,41 T=-19 SATs=9 V=11333 hellashab.blogspot.gr
10/5/2015 8:50 37,35067 22,1795 61 82 13105,49 T=-19 SATs=9 V=11313 hellashab.blogspot.gr
10/5/2015 8:50 37,3495 22,18333 57 128 13231,67 T=-19 SATs=10 V=11313 hellashab.blogspot.gr
10/5/2015 8:51 37,34917 22,18417 52 127 13253,92 T=-19 SATs=10 V=11313 hellashab.blogspot.gr
10/5/2015 8:51 37,34867 22,185 50 99 13281,66 T=-19 SATs=10 V=11313 hellashab.blogspot.gr
10/5/2015 8:51 37,3475 22,188 57 97 13371,27 T=-18 SATs=9 V=11292 hellashab.blogspot.gr
10/5/2015 8:51 37,34717 22,18917 46 121 13400,53 T=-15 SATs=11 V=11313 hellashab.blogspot.gr
10/5/2015 8:51 37,34583 22,19217 59 103 13491,36 T=-17 SATs=11 V=11313 hellashab.blogspot.gr
10/5/2015 8:52 37,34533 22,19317 61 115 13531,29 T=-17 SATs=10 V=11313 hellashab.blogspot.gr
10/5/2015 8:52 37,34483 22,1965 30 130 13665,4 T=-17 SATs=11 V=11313 hellashab.blogspot.gr
10/5/2015 8:52 37,34417 22,199 37 108 13759,28 T=-16 SATs=11 V=11313 hellashab.blogspot.gr
10/5/2015 8:52 37,344 22,20017 26 101 13798,3 T=-14 SATs=11 V=11313 hellashab.blogspot.gr
10/5/2015 8:53 37,34383 22,20083 41 93 13828,17 T=-16 SATs=10 V=11313 hellashab.blogspot.gr
10/5/2015 8:53 37,34367 22,20367 31 93 13927,53 T=-16 SATs=11 V=11313 hellashab.blogspot.gr
10/5/2015 8:53 37,3435 22,2045 61 115 13952,83 T=-16 SATs=9 V=11292 hellashab.blogspot.gr
10/5/2015 8:53 37,34283 22,20783 43 99 14056,16 T=-13 SATs=8 V=11292 hellashab.blogspot.gr
10/5/2015 8:54 37,34267 22,20917 43 115 14092,12 T=-15 SATs=10 V=11292 hellashab.blogspot.gr
10/5/2015 8:54 37,34233 22,2125 63 102 14195,45 T=-15 SATs=11 V=11292 hellashab.blogspot.gr
10/5/2015 8:54 37,34233 22,21333 43 72 14225,32 T=-15 SATs=11 V=11313 hellashab.blogspot.gr
10/5/2015 8:54 37,342 22,21667 44 80 14345,11 T=-15 SATs=10 V=11292 hellashab.blogspot.gr
10/5/2015 8:55 37,34183 22,2175 50 122 14374,98 T=-15 SATs=10 V=11292 hellashab.blogspot.gr
10/5/2015 8:55 37,342 22,21983 43 91 14467,03 T=-14 SATs=11 V=11292 hellashab.blogspot.gr
10/5/2015 8:55 37,342 22,22083 59 92 14506,04 T=-16 SATs=10 V=11292 hellashab.blogspot.gr
10/5/2015 8:55 37,34233 22,22383 48 87 14586,2 T=-14 SATs=11 V=11292 hellashab.blogspot.gr
10/5/2015 8:55 37,34267 22,22467 57 90 14610,59 T=-16 SATs=11 V=11292 hellashab.blogspot.gr
10/5/2015 8:56 37,34267 22,22583 50 57 14638,32 T=-16 SATs=10 V=11292 hellashab.blogspot.gr
10/5/2015 8:56 37,34317 22,22867 35 71 14743,18 T=-16 SATs=11 V=11292 hellashab.blogspot.gr
10/5/2015 8:56 37,34283 22,22933 24 116 14780,06 T=-16 SATs=11 V=11292 hellashab.blogspot.gr
10/5/2015 8:56 37,3425 22,23183 41 115 14876,37 T=-16 SATs=11 V=11292 hellashab.blogspot.gr
10/5/2015 8:56 37,34233 22,2325 50 81 14898,93 T=-14 SATs=11 V=11292 hellashab.blogspot.gr
10/5/2015 8:57 37,342 22,23583 37 109 14994,03 T=-16 SATs=11 V=11272 hellashab.blogspot.gr
10/5/2015 8:57 37,34183 22,237 43 123 15026,34 T=-16 SATs=7 V=11272 hellashab.blogspot.gr
10/5/2015 8:57 37,34133 22,24017 54 111 15115,95 T=-16 SATs=11 V=11272 hellashab.blogspot.gr
10/5/2015 8:58 37,341 22,2415 46 109 15146,43 T=-15 SATs=11 V=11272 hellashab.blogspot.gr
10/5/2015 8:58 37,3405 22,24633 46 104 15257,37 T=-16 SATs=11 V=11292 hellashab.blogspot.gr
10/5/2015 8:58 37,33983 22,2515 31 92 15393,62 T=-16 SATs=11 V=11272 hellashab.blogspot.gr
10/5/2015 8:59 37,33967 22,2525 59 107 15422,88 T=-15 SATs=10 V=11272 hellashab.blogspot.gr
10/5/2015 8:59 37,33933 22,25533 44 63 15549,98 T=-16 SATs=10 V=11272 hellashab.blogspot.gr
10/5/2015 8:59 37,3395 22,25633 35 99 15590,82 T=-15 SATs=10 V=11272 hellashab.blogspot.gr
10/5/2015 8:59 37,33983 22,25917 44 64 15703,91 T=-16 SATs=11 V=11272 hellashab.blogspot.gr
10/5/2015 8:59 37,34 22,25983 50 66 15730,12 T=-16 SATs=9 V=11272 hellashab.blogspot.gr
10/5/2015 9:00 37,34117 22,26333 54 77 15866,06 T=-15 SATs=10 V=11272 hellashab.blogspot.gr
10/5/2015 9:00 37,34117 22,26667 74 96 15967,25 T=-16 SATs=10 V=11272 hellashab.blogspot.gr
10/5/2015 9:00 37,341 22,26767 41 121 15994,68 T=-16 SATs=10 V=11252 hellashab.blogspot.gr
10/5/2015 9:00 37,34083 22,26883 78 92 16020,9 T=-17 SATs=10 V=11272 hellashab.blogspot.gr
10/5/2015 9:01 37,34 22,27233 48 110 16115,69 T=-14 SATs=10 V=11252 hellashab.blogspot.gr
10/5/2015 9:01 37,33933 22,27333 72 106 16144,34 T=-16 SATs=10 V=11272 hellashab.blogspot.gr
10/5/2015 9:01 37,3375 22,2775 74 123 16265,96 T=-15 SATs=10 V=11252 hellashab.blogspot.gr
10/5/2015 9:02 37,33667 22,27883 69 136 16320,52 T=-15 SATs=10 V=11252 hellashab.blogspot.gr
10/5/2015 9:02 37,335 22,28083 43 122 16415,92 T=-13 SATs=10 V=11272 hellashab.blogspot.gr
10/5/2015 9:02 37,33467 22,28117 39 125 16450,97 T=-15 SATs=9 V=11252 hellashab.blogspot.gr
10/5/2015 9:02 37,333 22,28283 35 151 16573,5 T=-13 SATs=10 V=11252 hellashab.blogspot.gr
10/5/2015 9:02 37,3325 22,28317 11 155 16604,59 T=-15 SATs=10 V=11252 hellashab.blogspot.gr
10/5/2015 9:03 37,33167 22,2845 33 105 16710,96 T=-16 SATs=10 V=11236 hellashab.blogspot.gr
10/5/2015 9:03 37,3315 22,285 24 153 16747,85 T=-16 SATs=10 V=11252 hellashab.blogspot.gr
10/5/2015 9:04 37,3315 22,289 26 79 16958,46 T=-15 SATs=10 V=11236 hellashab.blogspot.gr
10/5/2015 9:04 37,33133 22,28983 37 83 16988,64 T=-15 SATs=8 V=11236 hellashab.blogspot.gr
10/5/2015 9:04 37,33117 22,2905 50 103 17029,18 T=-16 SATs=10 V=11252 hellashab.blogspot.gr
10/5/2015 9:04 37,33067 22,2925 39 111 17119,09 T=-16 SATs=10 V=11236 hellashab.blogspot.gr
10/5/2015 9:04 37,33033 22,29283 44 134 17148,05 T=-16 SATs=10 V=11252 hellashab.blogspot.gr
10/5/2015 9:05 37,32917 22,29467 35 144 17255,64 T=-15 SATs=10 V=11252 hellashab.blogspot.gr
10/5/2015 9:05 37,32867 22,29517 26 105 17291,91 T=-16 SATs=9 V=11252 hellashab.blogspot.gr
10/5/2015 9:05 37,32817 22,29633 19 90 17382,13 T=-15 SATs=9 V=11236 hellashab.blogspot.gr
10/5/2015 9:05 37,32817 22,2965 19 126 17398,29 T=-15 SATs=8 V=11236 hellashab.blogspot.gr
10/5/2015 9:05 37,328 22,29683 22 112 17423,28 T=-16 SATs=8 V=11236 hellashab.blogspot.gr
10/5/2015 9:06 37,32717 22,29767 11 137 17528,74 T=-13 SATs=8 V=11236 hellashab.blogspot.gr
10/5/2015 9:06 37,32583 22,2985 11 176 17667,43 T=-16 SATs=9 V=11236 hellashab.blogspot.gr
10/5/2015 9:07 37,32533 22,29967 28 109 17787,82 T=-16 SATs=9 V=11236 hellashab.blogspot.gr
10/5/2015 9:07 37,32533 22,29983 31 128 17815,56 T=-15 SATs=9 V=11236 hellashab.blogspot.gr
10/5/2015 9:07 37,32533 22,30133 33 91 17917,67 T=-16 SATs=9 V=11236 hellashab.blogspot.gr
10/5/2015 9:07 37,3255 22,30183 46 85 17956,07 T=-17 SATs=9 V=11236 hellashab.blogspot.gr
10/5/2015 9:07 37,3255 22,30217 11 25 17987,47 T=-17 SATs=9 V=11216 hellashab.blogspot.gr
10/5/2015 9:08 37,32633 22,30367 33 39 18098,41 T=-16 SATs=9 V=11236 hellashab.blogspot.gr
10/5/2015 9:08 37,3265 22,30583 26 92 18229,78 T=-16 SATs=9 V=11216 hellashab.blogspot.gr
10/5/2015 9:08 37,32667 22,3065 43 115 18267,27 T=-15 SATs=9 V=11216 hellashab.blogspot.gr
10/5/2015 9:09 37,3265 22,30883 30 55 18383,1 T=-15 SATs=9 V=11216 hellashab.blogspot.gr
10/5/2015 9:09 37,3265 22,3095 43 118 18408,4 T=-15 SATs=9 V=11216 hellashab.blogspot.gr
10/5/2015 9:09 37,32583 22,31133 11 59 18532,45 T=-15 SATs=9 V=11216 hellashab.blogspot.gr
10/5/2015 9:10 37,32483 22,31217 7 177 18674,49 T=-15 SATs=9 V=11216 hellashab.blogspot.gr
10/5/2015 9:10 37,32467 22,3125 6 0 18702,53 T=-15 SATs=9 V=11216 hellashab.blogspot.gr
10/5/2015 9:10 37,32383 22,31267 19 233 18854,01 T=-15 SATs=9 V=11216 hellashab.blogspot.gr
10/5/2015 9:11 37,32417 22,31233 9 344 18975,32 T=-14 SATs=9 V=11196 hellashab.blogspot.gr
10/5/2015 9:11 37,32433 22,3125 37 345 19016,17 T=-14 SATs=9 V=11196 hellashab.blogspot.gr
10/5/2015 9:11 37,32517 22,31283 26 42 19154,24 T=-12 SATs=9 V=11196 hellashab.blogspot.gr
10/5/2015 9:12 37,3255 22,3125 24 290 19262,75 T=-10 SATs=9 V=11196 hellashab.blogspot.gr
10/5/2015 9:12 37,32567 22,31217 19 328 19312,74 T=-14 SATs=9 V=11196 hellashab.blogspot.gr
10/5/2015 9:12 37,32667 22,31183 35 37 19415,76 T=-13 SATs=9 V=11196 hellashab.blogspot.gr
10/5/2015 9:12 37,32717 22,31183 28 296 19445,33 T=-13 SATs=9 V=11196 hellashab.blogspot.gr
10/5/2015 9:13 37,328 22,31217 22 54 19562,67 T=-13 SATs=8 V=11196 hellashab.blogspot.gr
10/5/2015 9:13 37,329 22,31383 26 18 19685,51 T=-9 SATs=9 V=11196 hellashab.blogspot.gr
10/5/2015 9:13 37,32917 22,314 52 80 19715,38 T=-12 SATs=8 V=11196 hellashab.blogspot.gr
10/5/2015 9:14 37,32967 22,316 22 116 19840,35 T=-8 SATs=9 V=11176 hellashab.blogspot.gr
10/5/2015 9:14 37,32917 22,31683 22 178 20000,67 T=-11 SATs=9 V=11196 hellashab.blogspot.gr
10/5/2015 9:15 37,32867 22,317 6 112 20121,07 T=-11 SATs=9 V=11176 hellashab.blogspot.gr
10/5/2015 9:15 37,32867 22,31733 22 119 20158,86 T=-11 SATs=8 V=11176 hellashab.blogspot.gr
10/5/2015 9:15 37,329 22,31817 31 62 20255,18 T=-11 SATs=9 V=11176 hellashab.blogspot.gr
10/5/2015 9:15 37,329 22,3185 15 95 20283,22 T=-11 SATs=9 V=11176 hellashab.blogspot.gr
10/5/2015 9:15 37,32933 22,32017 22 112 20392,34 T=-11 SATs=9 V=11176 hellashab.blogspot.gr
10/5/2015 9:16 37,329 22,3225 19 94 20517,92 T=-11 SATs=9 V=11176 hellashab.blogspot.gr
10/5/2015 9:17 37,32883 22,325 28 82 20673,06 T=-11 SATs=9 V=11176 hellashab.blogspot.gr
10/5/2015 9:17 37,3285 22,32667 26 155 20777,61 T=-11 SATs=9 V=11176 hellashab.blogspot.gr
10/5/2015 9:17 37,3275 22,32817 19 174 20897,7 T=-11 SATs=9 V=11176 hellashab.blogspot.gr
10/5/2015 9:18 37,32617 22,32817 33 231 21029,07 T=-9 SATs=9 V=11176 hellashab.blogspot.gr
10/5/2015 9:18 37,32533 22,3275 4 0 21137,88 T=-12 SATs=9 V=11155 hellashab.blogspot.gr
10/5/2015 9:18 37,32533 22,32717 30 216 21152,82 T=-9 SATs=8 V=11155 hellashab.blogspot.gr
10/5/2015 9:19 37,32483 22,32683 15 270 21275,34 T=-12 SATs=9 V=11176 hellashab.blogspot.gr
10/5/2015 9:20 37,325 22,32783 13 30 21522,23 T=-12 SATs=9 V=11155 hellashab.blogspot.gr
10/5/2015 9:20 37,32517 22,3285 15 157 21663,96 T=-12 SATs=9 V=11155 hellashab.blogspot.gr
10/5/2015 9:20 37,32483 22,329 28 131 21762,11 T=-12 SATs=9 V=11155 hellashab.blogspot.gr
10/5/2015 9:20 37,32467 22,32917 17 235 21791,07 T=-12 SATs=9 V=11135 hellashab.blogspot.gr
10/5/2015 9:21 37,324 22,329 30 182 21896,83 T=-11 SATs=9 V=11155 hellashab.blogspot.gr
10/5/2015 9:21 37,32383 22,32867 20 255 21923,65 T=-11 SATs=9 V=11155 hellashab.blogspot.gr
10/5/2015 9:21 37,32283 22,32767 17 220 22037,34 T=-11 SATs=9 V=11155 hellashab.blogspot.gr
10/5/2015 9:21 37,323 22,32717 28 254 22068,43 T=-11 SATs=8 V=11155 hellashab.blogspot.gr
10/5/2015 9:22 37,323 22,3255 13 315 22176,33 T=-10 SATs=9 V=11155 hellashab.blogspot.gr
10/5/2015 9:22 37,32367 22,324 15 341 22312,27 T=-10 SATs=8 V=11135 hellashab.blogspot.gr
10/5/2015 9:23 37,3245 22,32333 26 316 22425,36 T=-10 SATs=9 V=11155 hellashab.blogspot.gr
10/5/2015 9:23 37,32567 22,32283 13 28 22566,17 T=-10 SATs=9 V=11135 hellashab.blogspot.gr
10/5/2015 9:24 37,3265 22,32333 20 92 22701,81 T=-10 SATs=8 V=11135 hellashab.blogspot.gr
10/5/2015 9:24 37,32683 22,32383 9 322 22813,06 T=-9 SATs=9 V=11135 hellashab.blogspot.gr
10/5/2015 9:24 37,32783 22,32467 26 33 22945,65 T=-9 SATs=9 V=11135 hellashab.blogspot.gr
10/5/2015 9:25 37,32867 22,32517 13 62 23039,53 T=-6 SATs=9 V=11135 hellashab.blogspot.gr
10/5/2015 9:25 37,33 22,32533 26 327 23165,71 T=-9 SATs=9 V=11135 hellashab.blogspot.gr
10/5/2015 9:26 37,33133 22,32583 19 348 23301,35 T=-8 SATs=9 V=11115 hellashab.blogspot.gr
10/5/2015 9:26 37,33283 22,32633 37 347 23449,79 T=-8 SATs=9 V=11115 hellashab.blogspot.gr
10/5/2015 9:26 37,33433 22,32683 31 40 23586,64 T=-8 SATs=7 V=11115 hellashab.blogspot.gr
10/5/2015 9:27 37,33567 22,328 30 22 23743,62 T=-7 SATs=9 V=11115 hellashab.blogspot.gr
10/5/2015 9:27 37,33667 22,32867 24 26 23850,3 T=-6 SATs=9 V=11115 hellashab.blogspot.gr
10/5/2015 9:28 37,33733 22,3295 22 104 23993,86 T=-6 SATs=8 V=11115 hellashab.blogspot.gr
10/5/2015 9:28 37,33783 22,33 22 318 24241,96 T=-6 SATs=9 V=11115 hellashab.blogspot.gr
10/5/2015 9:29 37,33817 22,3295 11 159 24358,4 T=-6 SATs=9 V=11115 hellashab.blogspot.gr
10/5/2015 9:29 37,33867 22,3295 6 0 24492,81 T=-5 SATs=8 V=11115 hellashab.blogspot.gr
10/5/2015 9:30 37,3395 22,32933 17 318 24607,72 T=-4 SATs=9 V=11115 hellashab.blogspot.gr
10/5/2015 9:30 37,34067 22,3295 22 348 24732,39 T=-4 SATs=9 V=11115 hellashab.blogspot.gr
10/5/2015 9:31 37,34133 22,32967 13 48 24842,72 T=-3 SATs=9 V=11095 hellashab.blogspot.gr
10/5/2015 9:32 37,34417 22,33117 22 52 25244,45 T=-2 SATs=8 V=11095 hellashab.blogspot.gr
10/5/2015 9:32 37,34467 22,33167 20 54 25357,84 T=-2 SATs=9 V=11095 hellashab.blogspot.gr
10/5/2015 9:33 37,3455 22,33283 24 67 25501,4 T=-2 SATs=9 V=11095 hellashab.blogspot.gr
10/5/2015 9:33 37,34617 22,3335 13 349 25628,5 T=2 SATs=9 V=11095 hellashab.blogspot.gr
10/5/2015 9:33 37,34683 22,334 22 88 25740,06 T=-2 SATs=9 V=11095 hellashab.blogspot.gr
10/5/2015 9:34 37,34767 22,33483 9 74 25885,44 T=0 SATs=9 V=11095 hellashab.blogspot.gr
10/5/2015 9:34 37,34833 22,3355 22 83 25983,59 T=3 SATs=9 V=11095 hellashab.blogspot.gr
10/5/2015 9:34 37,34933 22,336 31 359 26086,61 T=-1 SATs=9 V=11095 hellashab.blogspot.gr
10/5/2015 9:35 37,35083 22,3375 41 19 26223,16 T=0 SATs=9 V=11095 hellashab.blogspot.gr
10/5/2015 9:36 37,3545 22,341 26 57 26590,75 T=0 SATs=9 V=11079 hellashab.blogspot.gr
10/5/2015 9:37 37,35783 22,34483 31 2 26990,04 T=5 SATs=9 V=11059 hellashab.blogspot.gr
10/5/2015 9:38 37,35883 22,34633 17 16 27107,08 T=1 SATs=9 V=11079 hellashab.blogspot.gr
10/5/2015 9:38 37,36183 22,34817 19 71 27374,39 T=2 SATs=9 V=11059 hellashab.blogspot.gr
10/5/2015 9:39 37,36367 22,35217 20 43 27636,22 T=6 SATs=9 V=11079 hellashab.blogspot.gr
10/5/2015 9:40 37,365 22,356 31 65 27895,3 T=3 SATs=9 V=11059 hellashab.blogspot.gr
10/5/2015 9:40 37,36567 22,35767 20 99 28014,17 T=2 SATs=9 V=11079 hellashab.blogspot.gr
10/5/2015 9:41 37,36667 22,359 48 55 28125,72 T=5 SATs=9 V=11079 hellashab.blogspot.gr
10/5/2015 9:41 37,36733 22,36033 26 14 28243,38 T=2 SATs=9 V=11079 hellashab.blogspot.gr
10/5/2015 9:41 37,36767 22,36183 20 52 28359,2 T=1 SATs=8 V=11059 hellashab.blogspot.gr
10/5/2015 9:42 37,36783 22,3635 39 78 28479,6 T=1 SATs=9 V=11079 hellashab.blogspot.gr
10/5/2015 9:42 37,36783 22,365 31 82 28586,28 T=1 SATs=9 V=11079 hellashab.blogspot.gr
10/5/2015 9:43 37,367 22,36633 33 159 28720,08 T=1 SATs=9 V=11059 hellashab.blogspot.gr
10/5/2015 9:43 37,36567 22,368 26 97 28856,33 T=1 SATs=9 V=11079 hellashab.blogspot.gr
10/5/2015 9:43 37,36483 22,36983 30 141 28978,25 T=1 SATs=8 V=11059 hellashab.blogspot.gr
10/5/2015 9:44 37,36433 22,37167 44 105 29109,01 T=1 SATs=8 V=11059 hellashab.blogspot.gr
10/5/2015 9:44 37,364 22,3735 37 80 29233,37 T=2 SATs=8 V=11059 hellashab.blogspot.gr
10/5/2015 9:44 37,36333 22,3755 43 115 29349,8 T=1 SATs=8 V=11059 hellashab.blogspot.gr
10/5/2015 9:45 37,36183 22,37733 43 150 29476,29 T=2 SATs=8 V=11059 hellashab.blogspot.gr
10/5/2015 9:45 37,36017 22,379 54 127 29590,59 T=2 SATs=7 V=11059 hellashab.blogspot.gr
10/5/2015 9:46 37,357 22,38133 20 133 29812,18 T=5 SATs=8 V=11059 hellashab.blogspot.gr
10/5/2015 9:47 37,35433 22,384 31 109 30157,22 T=2 SATs=8 V=11059 hellashab.blogspot.gr
10/5/2015 9:47 37,35367 22,38483 15 122 30277,61 T=2 SATs=8 V=11059 hellashab.blogspot.gr
10/5/2015 9:48 37,35317 22,38467 22 237 30412,94 T=4 SATs=7 V=11039 hellashab.blogspot.gr
10/5/2015 9:48 37,35283 22,384 20 199 30661,05 T=2 SATs=8 V=11059 hellashab.blogspot.gr
10/5/2015 9:51 37,35683 22,38383 44 13 31441,34 T=4 SATs=8 V=11039 hellashab.blogspot.gr
10/5/2015 9:51 37,3585 22,3845 22 33 31568,44 T=5 SATs=8 V=11039 hellashab.blogspot.gr
10/5/2015 9:52 37,36117 22,38717 15 68 32026,56 T=5 SATs=8 V=11039 hellashab.blogspot.gr
10/5/2015 9:57 37,37667 22,395 39 17 33798,66 T=11 SATs=8 V=11018 hellashab.blogspot.gr
10/5/2015 9:58 37,377 22,39917 28 66 34179,05 T=8 SATs=8 V=11018 hellashab.blogspot.gr
10/5/2015 9:59 37,37783 22,40383 6 90 34599,98 T=9 SATs=9 V=11018 hellashab.blogspot.gr
10/5/2015 10:00 37,37733 22,405 31 100 34128,46 T=9 SATs=8 V=10998 hellashab.blogspot.gr
10/5/2015 10:01 37,37783 22,41017 33 90 27114,4 T=2 SATs=9 V=11018 hellashab.blogspot.gr
10/5/2015 10:02 37,37917 22,41217 37 44 25052,73 T=-4 SATs=9 V=10998 hellashab.blogspot.gr
10/5/2015 10:02 37,38017 22,4125 37 10 24135,89 T=-6 SATs=9 V=10998 hellashab.blogspot.gr
10/5/2015 10:03 37,38117 22,413 37 71 23355 T=-7 SATs=9 V=11018 hellashab.blogspot.gr
10/5/2015 10:07 37,38133 22,4195 43 177 16500,04 T=-15 SATs=7 V=10998 hellashab.blogspot.gr
10/5/2015 10:07 37,3795 22,4215 63 105 16074,24 T=-15 SATs=8 V=10998 hellashab.blogspot.gr
10/5/2015 10:07 37,37867 22,42483 28 69 15664,28 T=-13 SATs=8 V=10998 hellashab.blogspot.gr
10/5/2015 10:09 37,37867 22,44067 48 117 13788,24 T=-16 SATs=8 V=10998 hellashab.blogspot.gr
10/5/2015 10:09 37,37833 22,4435 31 79 13449 T=-18 SATs=8 V=10998 hellashab.blogspot.gr
10/5/2015 10:10 37,37767 22,446 70 104 13110,06 T=-19 SATs=8 V=10998 hellashab.blogspot.gr
10/5/2015 10:11 37,37583 22,457 30 151 11850,62 T=-21 SATs=8 V=10998 hellashab.blogspot.gr
10/5/2015 10:12 37,37333 22,46133 46 167 10978,59 T=-23 SATs=8 V=10978 hellashab.blogspot.gr
10/5/2015 10:13 37,372 22,46483 13 153 10434,83 T=-24 SATs=7 V=10978 hellashab.blogspot.gr
10/5/2015 10:13 37,37217 22,46633 41 75 10168,74 T=-24 SATs=8 V=10978 hellashab.blogspot.gr
10/5/2015 10:14 37,37167 22,46617 39 187 9649,36 T=-24 SATs=8 V=10978 hellashab.blogspot.gr
10/5/2015 10:14 37,37133 22,46567 20 88 9391,19 T=-24 SATs=8 V=10978 hellashab.blogspot.gr
10/5/2015 10:14 37,3715 22,46567 26 288 9140,95 T=-24 SATs=8 V=10958 hellashab.blogspot.gr
10/5/2015 10:15 37,3715 22,4655 20 126 8894,37 T=-24 SATs=8 V=10978 hellashab.blogspot.gr
10/5/2015 10:15 37,37117 22,4655 30 212 8416,44 T=-21 SATs=8 V=10978 hellashab.blogspot.gr
10/5/2015 10:16 37,37067 22,4655 19 62 8184,18 T=-22 SATs=8 V=10978 hellashab.blogspot.gr
10/5/2015 10:16 37,3705 22,465 28 302 7953,15 T=-21 SATs=8 V=10958 hellashab.blogspot.gr
10/5/2015 10:16 37,37017 22,46417 26 181 7726,98 T=-19 SATs=8 V=10958 hellashab.blogspot.gr
10/5/2015 10:17 37,36983 22,4635 17 357 7503,57 T=-20 SATs=7 V=10958 hellashab.blogspot.gr
10/5/2015 10:17 37,3695 22,46283 28 270 7282,59 T=-19 SATs=8 V=10978 hellashab.blogspot.gr
10/5/2015 10:17 37,36867 22,4625 31 163 7069,84 T=-19 SATs=8 V=10958 hellashab.blogspot.gr
10/5/2015 10:18 37,36817 22,46217 15 85 6863,79 T=-15 SATs=8 V=10958 hellashab.blogspot.gr
10/5/2015 10:19 37,36683 22,46183 30 257 6459,63 T=-16 SATs=8 V=10958 hellashab.blogspot.gr
10/5/2015 10:19 37,36667 22,46133 28 202 6254,5 T=-15 SATs=8 V=10958 hellashab.blogspot.gr
10/5/2015 10:19 37,36633 22,46117 22 70 6047,84 T=-14 SATs=8 V=10958 hellashab.blogspot.gr
10/5/2015 10:20 37,36633 22,46133 15 277 5845,45 T=-14 SATs=7 V=10958 hellashab.blogspot.gr
10/5/2015 10:20 37,36567 22,4615 37 138 5642,15 T=-11 SATs=8 V=10958 hellashab.blogspot.gr
10/5/2015 10:20 37,3645 22,46233 30 113 5440,68 T=-12 SATs=8 V=10958 hellashab.blogspot.gr
10/5/2015 10:20 37,363 22,46317 39 190 5234,03 T=-11 SATs=7 V=10958 hellashab.blogspot.gr
10/5/2015 10:21 37,3615 22,46367 46 142 5038,04 T=-8 SATs=8 V=10958 hellashab.blogspot.gr
10/5/2015 10:21 37,36033 22,464 13 270 4839 T=-10 SATs=8 V=10958 hellashab.blogspot.gr
10/5/2015 10:21 37,35917 22,4635 41 193 4646,37 T=-7 SATs=8 V=10958 hellashab.blogspot.gr
10/5/2015 10:22 37,358 22,4635 17 124 4453,43 T=-8 SATs=8 V=10958 hellashab.blogspot.gr
10/5/2015 10:22 37,357 22,4635 31 220 4270,86 T=-7 SATs=8 V=10958 hellashab.blogspot.gr
10/5/2015 10:22 37,35567 22,4635 46 173 4087,37 T=-7 SATs=8 V=10958 hellashab.blogspot.gr
10/5/2015 10:23 37,35433 22,46333 41 162 3909,97 T=-6 SATs=8 V=10938 hellashab.blogspot.gr
10/5/2015 10:23 37,35317 22,46333 28 131 3735,93 T=-4 SATs=8 V=10938 hellashab.blogspot.gr
10/5/2015 10:23 37,35217 22,4635 0 0 3562,5 T=-5 SATs=8 V=10958 hellashab.blogspot.gr
10/5/2015 10:24 37,35133 22,46367 19 237 3387,85 T=-4 SATs=8 V=10938 hellashab.blogspot.gr
10/5/2015 10:24 37,35033 22,464 35 188 3218,69 T=-3 SATs=8 V=10958 hellashab.blogspot.gr
10/5/2015 10:24 37,34933 22,4645 39 148 3041,29 T=0 SATs=6 V=10958 hellashab.blogspot.gr
10/5/2015 10:25 37,34867 22,46533 37 103 2864,21 T=0 SATs=8 V=10938 hellashab.blogspot.gr
10/5/2015 10:25 37,3475 22,46633 24 230 2507,89 T=1 SATs=8 V=10938 hellashab.blogspot.gr
10/5/2015 10:26 37,3465 22,46633 37 203 2335,07 T=1 SATs=8 V=10958 hellashab.blogspot.gr
10/5/2015 10:26 37,34533 22,46533 54 202 2177,8 T=1 SATs=7 V=10958 hellashab.blogspot.gr
10/5/2015 10:26 37,344 22,46383 41 192 2016,25 T=2 SATs=8 V=10938 hellashab.blogspot.gr
10/5/2015 10:27 37,34283 22,46217 35 193 1862,02 T=3 SATs=8 V=10938 hellashab.blogspot.gr
10/5/2015 10:27 37,34167 22,46083 17 188 1707,79 T=3 SATs=7 V=10958 hellashab.blogspot.gr
10/5/2015 10:27 37,341 22,46017 11 190 1638,3 T=4 SATs=7 V=10938 hellashab.blogspot.gr
10/5/2015 10:27 37,34083 22,45967 50 201 1589,23 T=4 SATs=8 V=10938 hellashab.blogspot.gr
10/5/2015 10:28 37,33933 22,45833 41 247 1362,15 T=5 SATs=7 V=10938 hellashab.blogspot.gr
10/5/2015 10:28 37,33783 22,45717 33 184 1156,41 T=6 SATs=8 V=10938 hellashab.blogspot.gr